This demonstration page uses our WeatherBlox Daily Observations layout. Learn more.

Left ArrowRight Arrow

39.51506, -84.39828

Hourly Observations for June 2, 2015

Temp ( °F °C ) Dew Point ( °F °C ) Humidity (%) Winds ( mph kmh ) Pressure ( in mb ) Visibility ( mi km ) Precip ( " mm )
12:15 am 00:15 Cloudy 57 13.8 49 9.4 75 75 NE 7 11 30.18 1022 10 16.0934 N/A
12:35 am 00:35 Cloudy 57 13.8 49 9.6 76 76 NE 7 11 30.18 1022 10 16.0934 N/A
12:55 am 00:55 Cloudy 55 13 48 9 77 77 NE 8 13 30.18 1022 10 16.0934 N/A
1:15 am 01:15 Cloudy 55 12.5 48 8.8 78 78 NNE 5 7 30.18 1022 10 16.0934 N/A
1:35 am 01:35 Cloudy 55 12.5 49 9.2 80 80 NNE 3 6 30.18 1022 10 16.0934 N/A
1:55 am 01:55 Cloudy 55 12.5 49 9.5 82 82 N 3 6 30.18 1022 10 16.0934 N/A
2:15 am 02:15 Cloudy 55 12.5 49 9.7 83 83 N 3 6 30.15 1021 10 16.0934 N/A
2:35 am 02:35 Partly Cloudy 55 12.5 50 10 85 85 N 5 7 30.15 1021 10 16.0934 N/A
2:55 am 02:55 Clear 52 11 48 8.7 86 86 N 5 7 30.15 1021 10 16.0934 N/A
3:15 am 03:15 Clear 52 11 48 8.9 87 87 N N/A 30.15 1021 10 16.0934 N/A
3:35 am 03:35 Clear 51 10.7 47 8.6 87 87 N N/A 30.15 1021 10 16.0934 N/A
3:55 am 03:55 Clear 52 11 48 8.8 86 86 N N/A 30.15 1021 10 16.0934 N/A
4:15 am 04:15 Partly Cloudy 51 10.5 47 8.4 87 87 NNE 3 6 30.15 1021 10 16.0934 N/A
4:35 am 04:35 Cloudy 52 11 48 8.8 86 86 NNE 3 6 30.15 1021 10 16.0934 N/A
4:55 am 04:55 Cloudy 52 11.3 48 9 86 86 NNE 3 6 30.15 1021 10 16.0934 N/A
5:15 am 05:15 Cloudy 55 12.5 50 10 85 85 NNE 5 7 30.15 1021 10 16.0934 N/A
5:35 am 05:35 Cloudy 55 12.5 50 10 85 85 NNE 6 9 30.15 1021 10 16.0934 N/A
5:55 am 05:55 Cloudy 55 12.5 50 10 85 85 NE 5 7 30.15 1021 10 16.0934 N/A
6:15 am 06:15 Cloudy 55 12.5 50 9.8 84 84 N 6 9 30.15 1021 10 16.0934 N/A
6:35 am 06:35 Cloudy 55 12.5 49 9.7 83 83 NNE 6 9 30.15 1021 10 16.0934 N/A
6:55 am 06:55 Cloudy 55 12.5 49 9.7 83 83 NNE 3 6 30.15 1021 7 11.26538 N/A
7:15 am 07:15 Cloudy 55 12.5 49 9.6 83 83 NNE 8 13 30.15 1021 7 11.26538 N/A
7:35 am 07:35 Cloudy 55 12.5 49 9.5 82 82 NE 7 11 30.15 1021 10 16.0934 N/A
7:55 am 07:55 Cloudy 55 12.5 49 9.5 82 82 ENE 5 7 30.15 1021 7 11.26538 N/A
8:15 am 08:15 Cloudy 55 12.5 49 9.5 82 82 NE 7 11 30.18 1022 7 11.26538 N/A
8:35 am 08:35 Cloudy 55 12.5 49 9.5 82 82 ENE 5 7 30.18 1022 10 16.0934 N/A
8:55 am 08:55 Cloudy 55 12.5 49 9.3 81 81 NE 5 7 30.18 1022 10 16.0934 N/A
9:15 am 09:15 Cloudy 55 12.5 49 9.3 81 81 NE 6 9 30.18 1022 10 16.0934 N/A
9:35 am 09:35 Cloudy 55 12.5 49 9.2 80 80 ENE 6 9 30.18 1022 10 16.0934 N/A
9:55 am 09:55 Cloudy 55 12.5 49 9.2 80 80 NNE 5 7 30.18 1022 10 16.0934 N/A
10:15 am 10:15 Cloudy 55 12.5 48 9.1 80 80 ENE 5 7 30.21 1023 10 16.0934 N/A
10:35 am 10:35 Cloudy 55 12.5 48 9 79 79 NNE 6 9 30.18 1022 10 16.0934 N/A
10:55 am 10:55 Cloudy 55 12.9 49 9.2 78 78 NE 8 13 30.18 1022 10 16.0934 N/A
11:15 am 11:15 Cloudy 57 13.7 50 10 79 79 NE 6 9 30.21 1023 10 16.0934 N/A
11:35 am 11:35 Cloudy 57 13.8 50 10.1 79 79 E 8 13 30.18 1022 7 11.26538 N/A
11:55 am 11:55 Cloudy 57 13.8 50 9.9 78 78 N N/A 30.18 1022 10 16.0934 N/A
12:15 pm 12:15 Cloudy 57 13.8 50 10 78 78 N N/A 30.18 1022 10 16.0934 N/A
12:35 pm 12:35 Cloudy 57 13.8 50 10 78 78 NNE 3 6 30.18 1022 10 16.0934 N/A
12:55 pm 12:55 Cloudy 57 13.8 50 9.8 77 77 NNE 6 9 30.18 1022 10 16.0934 N/A
1:15 pm 13:15 Cloudy 57 14 49 9.6 75 75 N N/A 30.18 1022 10 16.0934 N/A
1:35 pm 13:35 Cloudy 60 15.3 51 10.7 74 74 ENE 7 11 30.18 1022 10 16.0934 N/A
1:55 pm 13:55 Cloudy 60 15.3 51 10.6 74 74 N 6 9 30.18 1022 10 16.0934 N/A
2:15 pm 14:15 Cloudy 60 15.3 50 10.2 72 72 ENE 5 7 30.18 1022 10 16.0934 N/A
2:35 pm 14:35 Cloudy 60 15.3 51 10.3 72 72 NE 5 7 30.15 1021 10 16.0934 N/A
2:55 pm 14:55 Cloudy 60 15.3 50 10.1 71 71 NE 7 11 30.15 1021 10 16.0934 N/A
3:15 pm 15:15 Cloudy 60 15.5 50 10.1 70 70 NNE 6 9 30.15 1021 10 16.0934 N/A
3:35 pm 15:35 Cloudy 61 16 51 10.4 70 70 NNE 6 9 30.15 1021 10 16.0934 N/A
3:55 pm 15:55 Cloudy 62 16.6 51 10.6 68 68 ENE 5 7 30.09 1019 10 16.0934 N/A
4:15 pm 16:15 Cloudy 62 16.6 51 10.6 68 68 ENE 7 11 30.09 1019 10 16.0934 N/A
4:35 pm 16:35 Cloudy 62 16.6 51 10.6 68 68 N N/A 30.09 1019 10 16.0934 N/A
4:55 pm 16:55 Cloudy 62 16.7 51 10.5 67 67 E 6 9 30.09 1019 10 16.0934 N/A
5:15 pm 17:15 Cloudy 62 16.8 51 10.6 67 67 E 3 6 30.09 1019 10 16.0934 N/A
5:35 pm 17:35 Mostly Cloudy 64 18 52 11.3 65 65 ENE 3 6 30.09 1019 10 16.0934 N/A
5:55 pm 17:55 Cloudy 64 17.9 52 11.3 65 65 E 5 7 30.09 1019 10 16.0934 N/A
6:15 pm 18:15 Cloudy 64 18 53 11.4 66 66 ESE 7 11 30.06 1018 10 16.0934 N/A
6:35 pm 18:35 Cloudy 64 18 52 11.3 65 65 ENE 3 6 30.06 1018 10 16.0934 N/A
6:55 pm 18:55 Cloudy 64 18 53 11.5 66 66 ENE 3 6 30.06 1018 10 16.0934 N/A
7:15 pm 19:15 Cloudy 64 18 53 11.5 66 66 NE 3 6 30.06 1018 10 16.0934 N/A
7:35 pm 19:35 Mostly Cloudy 64 18 53 11.6 66 66 ENE 7 11 30.06 1018 10 16.0934 N/A
7:55 pm 19:55 Cloudy 64 17.5 53 11.5 68 68 NE 3 6 30.09 1019 10 16.0934 N/A
8:15 pm 20:15 Mostly Cloudy 63 17 51 10.6 66 66 NE 6 9 30.09 1019 10 16.0934 N/A
8:35 pm 20:35 Mostly Cloudy 62 16.8 52 11.2 70 70 N N/A 30.09 1019 10 16.0934 N/A
8:55 pm 20:55 Cloudy with Haze 62 16.8 53 11.4 71 71 N N/A 30.09 1019 5 8.0467 N/A
9:15 pm 21:15 Cloudy 60 15.4 54 12.4 82 82 N N/A 30.12 1020 10 16.0934 N/A
9:35 pm 21:35 Mostly Cloudy 60 15.3 54 12.1 81 81 N N/A 30.12 1020 10 16.0934 N/A
9:55 pm 21:55 Partly Cloudy 58 14.3 53 11.7 85 85 N N/A 30.12 1020 10 16.0934 N/A
10:15 pm 22:15 Clear 57 13.8 52 11.3 85 85 N N/A 30.12 1020 10 16.0934 N/A
10:35 pm 22:35 Clear 57 13.8 53 11.5 86 86 N N/A 30.12 1020 10 16.0934 N/A
10:55 pm 22:55 Partly Cloudy 56 13.4 52 11.1 86 86 N N/A 30.12 1020 10 16.0934 N/A
11:15 pm 23:15 Clear 55 12.5 51 10.4 87 87 N N/A 30.12 1020 10 16.0934 N/A
11:35 pm 23:35 Clear 55 12.5 51 10.5 88 88 N N/A 30.12 1020 10 16.0934 N/A
11:55 pm 23:55 Mostly Cloudy 55 12.5 51 10.5 88 88 N N/A 30.12 1020 10 16.0934 N/A

Powered by AerisWeather